Time,TemperatureF,DewpointF,PressureIn,WindDirection,WindDirectionDegrees,WindSpeedMPH,WindSpeedGustMPH,Humidity,HourlyPrecipIn,Conditions,Clouds,dailyrainin,SoftwareType,DateUTC
2013-05-17 00:01:00,68.0,63.0,29.79,NNW,337,1.6,-999.0,84,-99.99,,,0.00,Acu-Link.com,2013-05-17 04:01:00,
2013-05-17 00:16:00,68.0,63.3,29.79,NNW,337,1.1,-999.0,85,-99.99,,,0.00,Acu-Link.com,2013-05-17 04:16:00,
2013-05-17 00:32:00,68.0,63.3,29.80,North,0,0.0,-999.0,85,-99.99,,,0.00,Acu-Link.com,2013-05-17 04:32:00,
2013-05-17 00:47:00,66.2,61.6,29.80,North,0,0.0,-999.0,85,-99.99,,,0.00,Acu-Link.com,2013-05-17 04:47:00,
2013-05-17 01:02:00,66.2,62.5,29.80,North,0,0.0,-999.0,88,-99.99,,,0.00,Acu-Link.com,2013-05-17 05:02:00,
2013-05-17 01:18:00,64.4,60.8,29.80,North,0,0.0,-999.0,88,-99.99,,,0.00,Acu-Link.com,2013-05-17 05:18:00,
2013-05-17 01:33:00,64.4,61.4,29.79,North,0,0.0,-999.0,90,-99.99,,,0.00,Acu-Link.com,2013-05-17 05:33:00,
2013-05-17 01:48:00,64.4,61.7,29.79,North,0,0.0,-999.0,91,-99.99,,,0.00,Acu-Link.com,2013-05-17 05:48:00,
2013-05-17 02:03:00,64.4,62.0,29.78,NNE,22,1.6,-999.0,92,-99.99,,,0.00,Acu-Link.com,2013-05-17 06:03:00,
2013-05-17 02:19:00,66.2,63.2,29.79,NNE,22,1.1,-999.0,90,-99.99,,,0.00,Acu-Link.com,2013-05-17 06:19:00,
2013-05-17 02:34:00,66.2,62.9,29.79,North,0,1.1,-999.0,89,-99.99,,,0.00,Acu-Link.com,2013-05-17 06:34:00,
2013-05-17 02:49:00,66.2,62.9,29.78,North,0,0.0,-999.0,89,-99.99,,,0.00,Acu-Link.com,2013-05-17 06:49:00,
2013-05-17 03:04:00,66.2,62.5,29.78,North,0,0.0,-999.0,88,-99.99,,,0.00,Acu-Link.com,2013-05-17 07:04:00,
2013-05-17 03:19:00,66.2,62.5,29.79,NNW,337,1.6,-999.0,88,-99.99,,,0.00,Acu-Link.com,2013-05-17 07:19:00,
2013-05-17 03:34:00,66.2,62.5,29.79,North,0,0.0,-999.0,88,-99.99,,,0.00,Acu-Link.com,2013-05-17 07:34:00,
2013-05-17 03:49:00,64.4,61.1,29.79,NNE,22,0.0,-999.0,89,-99.99,,,0.00,Acu-Link.com,2013-05-17 07:49:00,
2013-05-17 04:05:00,64.4,61.4,29.80,NNE,22,0.0,-999.0,90,-99.99,,,0.00,Acu-Link.com,2013-05-17 08:05:00,
2013-05-17 04:21:00,64.4,61.4,29.80,NNE,22,0.0,-999.0,90,-99.99,,,0.00,Acu-Link.com,2013-05-17 08:21:00,
2013-05-17 04:36:00,64.4,61.4,29.80,NNE,22,0.0,-999.0,90,-99.99,,,0.00,Acu-Link.com,2013-05-17 08:36:00,
2013-05-17 04:51:00,62.6,60.2,29.80,NNE,22,0.0,-999.0,92,-99.99,,,0.00,Acu-Link.com,2013-05-17 08:51:00,
2013-05-17 05:06:00,62.6,60.2,29.80,NNE,22,0.0,-999.0,92,-99.99,,,0.00,Acu-Link.com,2013-05-17 09:06:00,
2013-05-17 05:21:00,62.6,60.2,29.81,NNE,22,0.0,-999.0,92,-99.99,,,0.00,Acu-Link.com,2013-05-17 09:21:00,
2013-05-17 05:36:00,60.8,59.1,29.81,NNE,22,0.0,-999.0,94,-99.99,,,0.00,Acu-Link.com,2013-05-17 09:36:00,
2013-05-17 05:52:00,60.8,59.4,29.81,NE,45,0.0,-999.0,95,-99.99,,,0.00,Acu-Link.com,2013-05-17 09:52:00,
2013-05-17 06:07:00,60.8,59.4,29.81,NE,45,0.0,-999.0,95,-99.99,,,0.00,Acu-Link.com,2013-05-17 10:07:00,
2013-05-17 06:22:00,60.8,59.4,29.82,NE,45,0.0,-999.0,95,-99.99,,,0.00,Acu-Link.com,2013-05-17 10:22:00,
2013-05-17 06:37:00,62.6,61.1,29.84,NE,45,0.0,-999.0,95,-99.99,,,0.00,Acu-Link.com,2013-05-17 10:37:00,
2013-05-17 06:52:00,62.6,61.1,29.84,NE,45,0.0,-999.0,95,-99.99,,,0.00,Acu-Link.com,2013-05-17 10:52:00,
2013-05-17 07:08:00,62.6,61.4,29.84,NE,45,0.0,-999.0,96,-99.99,,,0.00,Acu-Link.com,2013-05-17 11:08:00,
2013-05-17 07:23:00,64.4,63.2,29.84,NNE,22,0.0,-999.0,96,-99.99,,,0.00,Acu-Link.com,2013-05-17 11:23:00,
2013-05-17 07:38:00,64.4,63.2,29.85,NNE,22,0.0,-999.0,96,-99.99,,,0.00,Acu-Link.com,2013-05-17 11:38:00,
2013-05-17 07:53:00,68.0,65.9,29.85,NE,45,0.0,-999.0,93,-99.99,,,0.00,Acu-Link.com,2013-05-17 11:53:00,
2013-05-17 08:08:00,68.0,65.3,29.85,NNE,22,0.0,-999.0,91,-99.99,,,0.00,Acu-Link.com,2013-05-17 12:08:00,
2013-05-17 08:24:00,71.6,65.1,29.85,South,180,2.7,-999.0,80,-99.99,,,0.00,Acu-Link.com,2013-05-17 12:24:00,
2013-05-17 08:39:00,75.2,64.7,29.86,South,180,1.6,-999.0,70,-99.99,,,0.00,Acu-Link.com,2013-05-17 12:39:00,
2013-05-17 08:54:00,77.0,66.0,29.86,South,180,2.7,-999.0,69,-99.99,,,0.00,Acu-Link.com,2013-05-17 12:54:00,
2013-05-17 09:09:00,75.2,64.7,29.86,South,180,4.0,-999.0,70,-99.99,,,0.00,Acu-Link.com,2013-05-17 13:09:00,
2013-05-17 09:25:00,80.6,66.4,29.86,NNE,22,2.7,-999.0,62,-99.99,,,0.00,Acu-Link.com,2013-05-17 13:25:00,
2013-05-17 09:40:00,82.4,66.1,29.86,SSE,157,2.0,-999.0,58,-99.99,,,0.00,Acu-Link.com,2013-05-17 13:40:00,
2013-05-17 09:55:00,82.4,66.1,29.87,South,180,3.1,-999.0,58,-99.99,,,0.00,Acu-Link.com,2013-05-17 13:55:00,
2013-05-17 10:10:00,78.8,65.1,29.87,South,180,4.0,-999.0,63,-99.99,,,0.00,Acu-Link.com,2013-05-17 14:10:00,
2013-05-17 10:25:00,78.8,65.1,29.87,South,180,3.6,-999.0,63,-99.99,,,0.00,Acu-Link.com,2013-05-17 14:25:00,
2013-05-17 10:41:00,80.6,65.9,29.87,South,180,3.1,-999.0,61,-99.99,,,0.00,Acu-Link.com,2013-05-17 14:41:00,
2013-05-17 10:56:00,80.6,65.4,29.87,South,180,4.0,-999.0,60,-99.99,,,0.00,Acu-Link.com,2013-05-17 14:56:00,
2013-05-17 11:11:00,80.6,65.9,29.87,South,180,3.6,-999.0,61,-99.99,,,0.00,Acu-Link.com,2013-05-17 15:11:00,
2013-05-17 11:26:00,80.6,65.9,29.87,SSE,157,3.6,-999.0,61,-99.99,,,0.00,Acu-Link.com,2013-05-17 15:26:00,
2013-05-17 11:42:00,84.2,67.3,29.87,South,180,3.6,-999.0,57,-99.99,,,0.00,Acu-Link.com,2013-05-17 15:42:00,
2013-05-17 11:57:00,86.0,68.4,29.87,South,180,3.6,-999.0,56,-99.99,,,0.00,Acu-Link.com,2013-05-17 15:57:00,
2013-05-17 12:12:00,86.0,66.8,29.86,South,180,4.0,-999.0,53,-99.99,,,0.00,Acu-Link.com,2013-05-17 16:12:00,
2013-05-17 12:27:00,87.8,67.9,29.86,SSE,157,2.7,-999.0,52,-99.99,,,0.00,Acu-Link.com,2013-05-17 16:27:00,
2013-05-17 12:43:00,87.8,66.8,29.86,South,180,3.1,-999.0,50,-99.99,,,0.00,Acu-Link.com,2013-05-17 16:43:00,
2013-05-17 12:58:00,89.6,65.4,29.86,South,180,5.1,-999.0,45,-99.99,,,0.00,Acu-Link.com,2013-05-17 16:58:00,
2013-05-17 13:13:00,89.6,66.0,29.85,SW,225,3.1,-999.0,46,-99.99,,,0.00,Acu-Link.com,2013-05-17 17:13:00,
2013-05-17 13:28:00,87.8,64.4,29.85,South,180,4.7,-999.0,46,-99.99,,,0.00,Acu-Link.com,2013-05-17 17:28:00,
2013-05-17 13:44:00,96.8,63.7,29.85,NE,45,1.6,-999.0,34,-99.99,,,0.00,Acu-Link.com,2013-05-17 17:44:00,
2013-05-17 13:59:00,96.8,63.7,29.84,SSW,202,3.6,-999.0,34,-99.99,,,0.00,Acu-Link.com,2013-05-17 17:59:00,
2013-05-17 14:14:00,96.8,60.2,29.84,West,270,1.6,-999.0,30,-99.99,,,0.00,Acu-Link.com,2013-05-17 18:14:00,
2013-05-17 14:29:00,95.0,63.0,29.84,SSW,202,2.7,-999.0,35,-99.99,,,0.00,Acu-Link.com,2013-05-17 18:29:00,
2013-05-17 14:45:00,89.6,62.7,29.84,SSW,202,3.1,-999.0,41,-99.99,,,0.00,Acu-Link.com,2013-05-17 18:45:00,
2013-05-17 15:00:00,91.4,62.9,29.83,WNW,292,2.7,-999.0,39,-99.99,,,0.00,Acu-Link.com,2013-05-17 19:00:00,
2013-05-17 15:15:00,93.2,63.0,29.83,NW,315,2.7,-999.0,37,-99.99,,,0.00,Acu-Link.com,2013-05-17 19:15:00,
2013-05-17 15:30:00,89.6,62.0,29.83,South,180,1.6,-999.0,40,-99.99,,,0.00,Acu-Link.com,2013-05-17 19:30:00,
2013-05-17 15:46:00,89.6,62.7,29.82,South,180,4.0,-999.0,41,-99.99,,,0.00,Acu-Link.com,2013-05-17 19:46:00,
2013-05-17 16:01:00,93.2,64.5,29.81,WSW,247,4.7,-999.0,39,-99.99,,,0.00,Acu-Link.com,2013-05-17 20:01:00,
2013-05-17 16:16:00,91.4,65.0,29.82,SSE,157,2.7,-999.0,42,-99.99,,,0.00,Acu-Link.com,2013-05-17 20:16:00,
2013-05-17 16:32:00,87.8,66.8,29.81,WNW,292,2.7,-999.0,50,-99.99,,,0.00,Acu-Link.com,2013-05-17 20:32:00,
2013-05-17 16:47:00,89.6,67.3,29.81,South,180,2.7,-999.0,48,-99.99,,,0.00,Acu-Link.com,2013-05-17 20:47:00,
2013-05-17 17:02:00,87.8,63.8,29.81,South,180,2.7,-999.0,45,-99.99,,,0.00,Acu-Link.com,2013-05-17 21:02:00,
2013-05-17 17:17:00,87.8,67.9,29.81,SSW,202,2.0,-999.0,52,-99.99,,,0.00,Acu-Link.com,2013-05-17 21:17:00,
2013-05-17 17:32:00,86.0,65.7,29.81,SSW,202,3.1,-999.0,51,-99.99,,,0.00,Acu-Link.com,2013-05-17 21:32:00,
2013-05-17 17:48:00,84.2,64.6,29.81,East,90,2.0,-999.0,52,-99.99,,,0.00,Acu-Link.com,2013-05-17 21:48:00,
2013-05-17 18:03:00,82.4,63.0,29.81,NNW,337,3.1,-999.0,52,-99.99,,,0.00,Acu-Link.com,2013-05-17 22:03:00,
2013-05-17 18:18:00,82.4,63.0,29.81,West,270,1.6,-999.0,52,-99.99,,,0.00,Acu-Link.com,2013-05-17 22:18:00,
2013-05-17 18:34:00,82.4,63.0,29.81,East,90,2.0,-999.0,52,-99.99,,,0.00,Acu-Link.com,2013-05-17 22:34:00,
2013-05-17 18:49:00,80.6,62.4,29.81,South,180,1.1,-999.0,54,-99.99,,,0.00,Acu-Link.com,2013-05-17 22:49:00,
2013-05-17 19:04:00,80.6,62.4,29.81,SSE,157,0.0,-999.0,54,-99.99,,,0.00,Acu-Link.com,2013-05-17 23:04:00,
2013-05-17 19:20:00,78.8,61.8,29.81,ESE,112,1.1,-999.0,56,-99.99,,,0.00,Acu-Link.com,2013-05-17 23:20:00,
2013-05-17 19:35:00,78.8,62.3,29.82,NNE,22,1.6,-999.0,57,-99.99,,,0.00,Acu-Link.com,2013-05-17 23:35:00,
2013-05-17 19:50:00,77.0,61.6,29.82,NNE,22,1.6,-999.0,59,-99.99,,,0.00,Acu-Link.com,2013-05-17 23:50:00,
2013-05-17 20:05:00,77.0,62.5,29.82,NNE,22,0.0,-999.0,61,-99.99,,,0.00,Acu-Link.com,2013-05-18 00:05:00,
2013-05-17 20:20:00,75.2,61.3,29.82,NNE,22,1.1,-999.0,62,-99.99,,,0.00,Acu-Link.com,2013-05-18 00:20:00,
2013-05-17 20:35:00,73.4,60.5,29.83,NNE,22,1.1,-999.0,64,-99.99,,,0.00,Acu-Link.com,2013-05-18 00:35:00,
2013-05-17 20:51:00,71.6,59.6,29.83,NNE,22,0.0,-999.0,66,-99.99,,,0.00,Acu-Link.com,2013-05-18 00:51:00,
2013-05-17 21:06:00,71.6,60.0,29.83,NNE,22,0.0,-999.0,67,-99.99,,,0.00,Acu-Link.com,2013-05-18 01:06:00,
2013-05-17 21:21:00,69.8,59.2,29.83,NNE,22,0.0,-999.0,69,-99.99,,,0.00,Acu-Link.com,2013-05-18 01:21:00,
2013-05-17 21:37:00,69.8,60.4,29.84,NNE,22,0.0,-999.0,72,-99.99,,,0.00,Acu-Link.com,2013-05-18 01:37:00,
2013-05-17 21:52:00,69.8,60.7,29.85,NNE,22,0.0,-999.0,73,-99.99,,,0.00,Acu-Link.com,2013-05-18 01:52:00,
2013-05-17 22:07:00,69.8,60.7,29.85,NNE,22,0.0,-999.0,73,-99.99,,,0.00,Acu-Link.com,2013-05-18 02:07:00,
2013-05-17 22:23:00,69.8,61.1,29.86,NNE,22,0.0,-999.0,74,-99.99,,,0.00,Acu-Link.com,2013-05-18 02:23:00,
2013-05-17 22:38:00,69.8,61.5,29.86,NNE,22,0.0,-999.0,75,-99.99,,,0.00,Acu-Link.com,2013-05-18 02:38:00,
2013-05-17 22:53:00,69.8,61.5,29.86,NNE,22,0.0,-999.0,75,-99.99,,,0.00,Acu-Link.com,2013-05-18 02:53:00,
2013-05-17 23:08:00,68.0,60.1,29.86,NNE,22,0.0,-999.0,76,-99.99,,,0.00,Acu-Link.com,2013-05-18 03:08:00,
2013-05-17 23:24:00,68.0,60.9,29.86,NNE,22,0.0,-999.0,78,-99.99,,,0.00,Acu-Link.com,2013-05-18 03:24:00,
2013-05-17 23:39:00,68.0,60.9,29.87,NNE,22,0.0,-999.0,78,-99.99,,,0.00,Acu-Link.com,2013-05-18 03:39:00,
2013-05-17 23:54:00,68.0,61.2,29.87,NNE,22,0.0,-999.0,79,-99.99,,,0.00,Acu-Link.com,2013-05-18 03:54:00,